Location: Belloy
(55.7522°N, 118.2333°W)
Time: 23:04:11
(UTC+00:00)

Envisat - Pass Details

Date: 08 December 2021
Orbit: 764 x 766 km, 98.2° (Epoch: 27 January)

Event Time Altitude Azimuth Distance (km) Brightness Sun altitude
Rises 13:00:36 0° 16° (NNE) 3,249 6.4 -24.8°
Reaches altitude 10° 13:02:56 10° 19° (NNE) 2,318 5.6 -24.5°
Maximum altitude 13:08:03 72° 104° (ESE) 810 3.2 -23.8°
Drops below altitude 10° 13:13:07 10° 189° (S) 2,300 5.4 -23.1°
Sets 13:15:25 0° 191° (S) 3,222 6.2 -22.7°
